• Join FlightAware (Why Join?)
  • Login
  • US Flag 
05:23PM EDT


 

Airport Tracker/Info


-or-


 

Live Flight TrackerFlight Track Log ✈ RPA3411 ✈ 04-Sep-2013 ✈ KPWM - KPHL

Flight Track Log - Related Links

Times and Time Zones

All times are in EDT time to prevent confusion due to time zone crossing. See the RPA3411 flight status page for this flight to view local times or setup timezone preferences in your user account.

Time Position Orientation Groundspeed Altitude Reporting Facility
EDT Latitude Longitude Course Direction KTS MPH feet Rate Location/Type
06:16PM 43.6436 -70.4289 232° Southwest 181 208 4,300  Level Boston Center
06:17PM 43.5797 -70.4711 206° Southwest 204 235 7,500 3,420 Climbing Boston Center
06:18PM 43.5050 -70.1955 229° Southwest  Level FlightAware Approximate
06:18PM 43.5014 -70.5167 203° Southwest 266 306 11,200  Level Boston Center
06:19PM 43.4505 -70.2826 229° Southwest  Level FlightAware Approximate
06:19PM 43.4331 -70.5589 204° Southwest 294 338 13,400  Level Boston Center
06:20PM 43.3998 -70.3736 226° Southwest  Level FlightAware Approximate
06:20PM 43.3506 -70.6097 204° Southwest 323 372 16,300  Level Boston Center
06:21PM 43.3413 -70.4555 226° Southwest  Level FlightAware Approximate
06:21PM 43.2597 -70.6639 203° Southwest 329 379 19,100  Level Boston Center
06:22PM 43.2888 -70.5446 232° Southwest  Level FlightAware Approximate
06:22PM 43.1731 -70.7147 203° Southwest 334 384 21,600  Level Boston Center
06:23PM 43.0844 -70.7769 207° Southwest 344 396 23,800 1,980 Climbing Boston Center
06:24PM 42.9956 -70.8419 208° Southwest 354 407 25,700 1,680 Climbing Boston Center
06:25PM 42.9008 -70.9094 208° Southwest 370 426 27,300 1,320 Climbing Boston Center
06:26PM 42.8058 -70.9742 207° Southwest 377 434 28,400 1,020 Climbing Boston Center
06:27PM 42.7108 -71.0528 211° Southwest 390 449 29,400 780 Climbing Boston Center
06:28PM 42.6181 -71.1394 215° Southwest 403 464 30,000 240 Climbing Boston Center
06:29PM 42.5231 -71.2258 214° Southwest 414 476 30,000  Level Boston Center
06:30PM 42.4364 -71.3092 215° Southwest 414 476 30,000  Level Boston Center
06:32PM 42.3584 -71.4049 214° Southwest  Level FlightAware Approximate
06:32PM 42.2692 -71.4636 214° Southwest 374 430 30,000  Level Boston Center
06:33PM 42.1906 -71.5406 216° Southwest 369 425 30,000  Level Boston Center
06:34PM 42.1014 -71.6119 211° Southwest 369 425 30,000  Level Boston Center
06:35PM 42.0164 -71.6883 214° Southwest 369 425 30,000  Level Boston Center
06:36PM 41.9336 -71.7647 214° Southwest 369 425 30,000  Level Boston Center
06:37PM 41.8528 -71.8381 214° Southwest 369 425 30,000  Level Boston Center
06:38PM 41.7719 -71.9111 214° Southwest 364 419 30,000  Level Boston Center
06:39PM 41.6908 -71.9869 215° Southwest 364 419 30,000  Level Boston Center
06:40PM 41.6119 -72.0569 214° Southwest 359 413 30,000  Level Boston Center
06:41PM 41.5331 -72.1406 218° Southwest 359 413 30,000  Level Boston Center
06:42PM 41.4542 -72.2269 219° Southwest 365 420 30,000  Level Boston Center
06:43PM 41.3875 -72.2989 219° Southwest 365 420 30,000  Level Boston Center
06:44PM 41.3106 -72.3822 219° Southwest 365 420 30,000  Level Boston Center
06:45PM 41.2228 -72.4814 220° Southwest 372 428 30,000  Level Boston Center
06:46PM 41.1417 -72.5697 219° Southwest 377 434 30,000 -60 Level Boston Center
06:47PM 41.0622 -72.6575 220° Southwest 377 434 29,900 -600 Descending Boston Center
06:48PM 40.9828 -72.7453 220° Southwest 377 434 28,800 -1,140 Descending Boston Center
06:49PM 40.8992 -72.8217 215° Southwest 377 434 27,600 -1,200 Descending Boston Center
06:50PM 40.8114 -72.8869 209° Southwest 364 419 26,500 -1,440 Descending Boston Center
06:53PM 40.6214 -73.0267 209° Southwest 360 414 23,100 -1,560 Descending New York Center
06:54PM 40.5369 -73.0867 208° Southwest 354 407 21,500 -1,440 Descending New York Center
06:55PM 40.4544 -73.1494 210° Southwest 354 407 20,300 -780 Descending New York Center
06:56PM 40.3678 -73.2119 209° Southwest 354 407 20,000 -180 Descending New York Center
06:57PM 40.2831 -73.2714 208° Southwest 354 407 20,000  Level New York Center
06:58PM 40.1983 -73.3336 209° Southwest 354 407 20,000  Level New York Center
06:59PM 40.1139 -73.3928 208° Southwest 354 407 20,000  Level New York Center
07:00PM 40.0289 -73.4547 209° Southwest 354 407 20,000  Level New York Center
07:01PM 39.9422 -73.5161 209° Southwest 359 413 20,000 -360 Level New York Center
07:02PM 39.8694 -73.5972 221° Southwest 353 406 19,300 -960 Descending New York Center
07:03PM 39.8108 -73.6894 230° Southwest 341 392 18,100 -1,260 Descending New York Center
07:03PM 39.7642 -73.7639 231° Southwest 345 397 17,100 -1,200 Descending Washington Center
07:04PM 39.7031 -73.8572 230° Southwest 336 387 16,000 -960 Descending Washington Center
07:05PM 39.6583 -73.9311 232° Southwest 336 387 15,200 -900 Descending Washington Center
07:06PM 39.5950 -74.0269 229° Southwest 329 379 14,300 -660 Descending Washington Center
07:07PM 39.5397 -74.1142 231° Southwest 329 379 14,000 -180 Descending Washington Center
07:08PM 39.5222 -74.2222 258° West 307 353 14,000 -360 Level Washington Center
07:09PM 39.5256 -74.3378 272° West 308 354 13,300 -1,080 Descending Washington Center
07:12PM 39.5333 -74.6167 272° West 306 352 10,400 -1,200 Descending Philadelphia TRACON
07:13PM 39.5333 -74.7167 270° West 277 319 9,400 -840 Descending Philadelphia TRACON
07:14PM 39.5333 -74.8167 270° West 274 315 8,800 -600 Descending Philadelphia TRACON
07:15PM 39.5167 -74.9000 255° West 243 280 8,200 -420 Descending Philadelphia TRACON
07:16PM 39.5000 -74.9833 255° West 230 265 8,000 -600 Descending Philadelphia TRACON
07:17PM 39.4833 -75.0667 255° West 223 257 7,100 -1,020 Descending Philadelphia TRACON
07:18PM 39.5167 -75.1167 311° West 222 255 6,000 -600 Descending Philadelphia TRACON
07:19PM 39.5833 -75.1000 11° North 218 251 6,000  Level Philadelphia TRACON
07:20PM 39.6333 -75.1000 360° North 221 254 6,000  Level Philadelphia TRACON
07:21PM 39.7000 -75.1000 360° North 197 227 6,000  Level Philadelphia TRACON
07:22PM 39.7500 -75.0833 14° North 203 234 6,000  Level Philadelphia TRACON
07:23PM 39.8000 -75.0667 14° North 212 244 6,000  Level Philadelphia TRACON
07:24PM 39.8167 -75.0000 72° East 221 254 6,000 -360 Level Philadelphia TRACON
07:25PM 39.8333 -74.9167 75° East 217 250 5,300 -480 Descending Philadelphia TRACON
07:26PM 39.8500 -74.8333 75° East 219 252 5,000 -480 Descending Philadelphia TRACON
07:27PM 39.9000 -74.8167 14° North 192 221 4,400 -540 Descending Philadelphia TRACON
07:28PM 39.9333 -74.8500 323° Northwest 182 209 4,000 -240 Descending Philadelphia TRACON
07:29PM 39.9333 -74.9167 270° West 181 208 4,000 -180 Level Philadelphia TRACON
07:30PM 39.9167 -74.9833 252° West 177 204 3,700 -600 Descending Philadelphia TRACON
07:31PM 39.9167 -75.0333 270° West 175 201 2,800 -900 Descending Philadelphia TRACON
07:32PM 39.9000 -75.1000 252° West 173 199 2,100 -900 Descending Philadelphia TRACON
07:33PM 39.8833 -75.1500 247° West 152 175 1,200 -840 Descending Philadelphia TRACON
07:34PM 39.8833 -75.2000 270° West 119 137 500 -720 Descending Philadelphia TRACON